Location: Girdwood
(60.9430°N, 149.1660°W)
Time: 01:41:46
(UTC-09:00)

Iridium 86 - Visible Passes

Search period start: 22 December 2014 00:00
Search period end: 01 January 2015 00:00
Orbit: 776 x 779 km, 86.4° (Epoch: 21 December)

Date Brightness Start Highest point End Pass type
(mag) Time Alt. Az. Time Alt. Az. Time Alt. Az.
22 Dec 7.9 05:00:43 10° NNE 05:04:28 20° ENE 05:08:13 10° ESE visible
22 Dec 5.7 06:40:57 10° N 06:46:11 72° E 06:51:24 10° SSE visible
22 Dec 6.4 08:22:09 10° NNW 08:26:32 28° WNW 08:30:55 10° SW visible
22 Dec 6.7 18:09:40 10° SE 18:12:42 22° E 18:12:42 22° E visible
22 Dec 5.5 19:48:37 10° S 19:53:17 72° SSW 19:53:17 72° SSW visible
22 Dec 7.8 21:31:14 10° WSW 21:33:51 21° W 21:33:51 21° W visible
23 Dec 8.3 04:27:40 10° NNE 04:30:24 14° NE 04:33:07 10° E visible
23 Dec 6.4 06:07:26 10° N 06:12:30 48° ENE 06:17:33 10° SSE visible
23 Dec 5.9 07:48:21 10° NNW 07:53:14 41° W 07:58:05 10° SSW visible
23 Dec 6.9 17:37:28 10° ESE 17:40:32 16° ENE 17:40:43 16° ENE visible
23 Dec 5.4 19:15:12 10° S 19:20:20 63° E 19:21:17 53° NE visible
23 Dec 7.1 20:56:47 10° SW 21:01:27 33° WNW 21:01:52 32° WNW visible
24 Dec 8.6 03:55:45 10° NE 03:56:13 10° NE 03:56:40 10° NE visible
24 Dec 7.1 05:33:59 10° N 05:38:43 33° ENE 05:43:26 10° SE visible
24 Dec 5.5 07:14:40 10° N 07:19:49 61° W 07:24:57 10° SSW visible
24 Dec 7.0 08:56:35 10° NNW 08:59:35 16° WNW 09:02:35 10° WSW visible
24 Dec 7.3 17:06:13 10° ENE 17:07:29 11° ENE 17:08:45 10° NE visible
24 Dec 5.8 18:42:02 10° SSE 18:46:55 42° E 18:49:19 26° NNE visible
24 Dec 6.4 20:22:38 10° SSW 20:27:40 47° WNW 20:29:54 30° NNW visible
24 Dec 8.3 22:07:10 10° W 22:09:48 14° NW 22:10:28 14° NW visible
25 Dec 7.6 05:00:37 10° N 05:04:49 24° ENE 05:09:00 10° ESE visible
25 Dec 5.4 06:41:03 10° N 06:46:18 90° W 06:51:32 10° S visible
25 Dec 6.6 08:22:27 10° NNW 08:26:26 23° WNW 08:30:24 10° WSW visible
25 Dec 6.3 18:09:11 10° SE 18:13:36 29° ENE 18:17:22 13° NNE visible
25 Dec 5.7 19:48:46 10° SSW 19:53:58 70° W 19:57:56 18° N visible
25 Dec 7.9 21:32:02 10° WSW 21:35:43 19° WNW 21:38:30 13° NNW visible
26 Dec 8.1 04:27:24 10° NNE 04:30:49 17° NE 04:34:12 10° E visible
26 Dec 6.0 06:07:29 10° N 06:12:41 62° ENE 06:17:51 10° SSE visible
26 Dec 6.2 07:48:35 10° NNW 07:53:11 33° W 07:57:46 10° SW visible
26 Dec 6.7 17:36:41 10° ESE 17:40:23 20° ENE 17:44:05 10° NNE visible
26 Dec 5.4 19:15:11 10° S 19:20:23 80° E 19:25:38 10° N visible
26 Dec 7.5 20:57:22 10° WSW 21:01:45 27° WNW 21:06:09 10° N visible
27 Dec 8.4 03:54:32 10° NNE 03:56:41 12° NE 03:58:51 10° ENE visible
27 Dec 6.7 05:34:00 10° N 05:38:58 42° ENE 05:43:54 10° SE visible
27 Dec 5.7 07:14:49 10° NNW 07:19:50 48° W 07:24:49 10° SSW visible
27 Dec 7.2 08:57:19 10° NW 08:59:23 12° WNW 09:01:27 10° W visible
27 Dec 7.1 17:04:43 10° E 17:07:15 14° ENE 17:09:48 10° NE visible
27 Dec 5.6 18:41:51 10° SSE 18:46:54 54° E 18:51:59 10° NNE visible
27 Dec 6.9 20:23:03 10° SW 20:27:53 38° WNW 20:32:45 10° N visible
27 Dec 8.5 22:08:39 10° WNW 22:10:16 11° NW 22:11:53 10° NNW visible
28 Dec 7.3 05:00:35 10° N 05:05:08 29° ENE 05:09:39 10° SE visible
28 Dec 5.4 06:41:10 10° N 06:46:23 72° W 06:51:34 10° S visible
28 Dec 6.8 08:22:51 10° NNW 08:26:17 18° WNW 08:29:43 10° WSW visible
28 Dec 6.0 18:08:48 10° SE 18:13:31 36° E 18:18:16 10° NNE visible
28 Dec 6.1 19:49:01 10° SSW 19:54:07 55° WNW 19:59:17 10° N visible
28 Dec 8.2 21:33:00 10° W 21:36:07 16° NW 21:39:14 10° NNW visible
29 Dec 7.8 04:27:16 10° N 04:31:11 21° ENE 04:35:05 10° ESE visible
29 Dec 5.6 06:07:34 10° N 06:12:49 78° E 06:18:03 10° S visible
29 Dec 6.4 07:48:50 10° NNW 07:53:06 26° WNW 07:57:21 10° SW visible
29 Dec 6.5 17:36:05 10° SE 17:40:15 25° ENE 17:44:25 10° NNE visible
29 Dec 5.5 19:15:15 10° S 19:20:28 82° W 19:25:44 10° N visible
29 Dec 7.8 20:58:05 10° WSW 21:02:04 22° WNW 21:06:04 10° N visible
30 Dec 8.2 03:54:35 11° NNE 03:57:08 15° NE 04:00:06 10° E visible
30 Dec 6.2 05:35:09 16° N 05:39:09 53° ENE 05:44:15 10° SSE visible
30 Dec 6.0 07:15:43 14° NNW 07:19:48 38° W 07:24:34 10° SSW visible
30 Dec 6.9 17:03:45 10° ESE 17:07:04 17° ENE 17:10:23 10° NNE visible
30 Dec 5.4 18:41:45 10° S 18:46:56 68° E 18:52:08 10° N visible
30 Dec 7.3 20:23:33 10° SW 20:28:08 30° WNW 20:32:45 10° N visible
31 Dec 8.5 03:22:35 11° NE 03:22:57 11° NE 03:24:17 10° ENE visible
31 Dec 6.9 05:03:09 25° NNE 05:05:23 36° ENE 05:10:11 10° SE visible
31 Dec 5.5 06:43:44 27° NNW 06:46:24 56° W 06:51:30 10° SSW visible
31 Dec 7.0 08:24:18 12° NW 08:26:06 15° WNW 08:28:49 10° W visible
31 Dec 5.8 18:08:32 10° SSE 18:13:29 46° E 18:18:27 10° NNE visible
31 Dec 6.6 19:49:20 10° SW 19:54:18 44° WNW 19:59:19 10° N visible
31 Dec 8.4 21:34:11 10° WNW 21:36:32 13° NW 21:38:53 10° NNW visible
